STARLINK-35363, 66178

Orbit data source: Space-Track

STARLINK-35363, 66178 is a payload satellite owned by SpaceX/Seattle (US) in LEO that was launched on Sun, 26 Oct 2025 UTC via an FALCON 9 launch vehicle from the Air Force Eastern Test Range (AFETR). Payload-class satellites include a variety of spacecraft equipped with specific instruments for various scientific and technological missions. These include communications satellites like Starlink; space stations such as the ISS; scientific satellites like the Hubble; Earth observation satellites from companies like Planet Labs, Umbra, and HawkEye 360; GPS; miniature CubeSats for education and research; and military/defense satellites.

Loading next visibility...
Identifier
66178, 2025-243B
Orbit
LEO
Country
Flag of USUS
Related business
Manufacturer
SpaceX/Seattle
Mission
Operational Commercial Communications
Bus & Motor
STARLINK V2MO, Unknown motor
Mass
575 kg wet, ~530 kg dry
Launch date (UTC)
2025-10-26 (8 months ago)
Launch vehicle
FALCON 9
Launch site
Air Force Eastern Test Range (AFETR)
Object type
Payload
Rocket body
Debris
Shape & HBR
Box + 2 Pan, 17.7 m
Radar Cross Section
36.964 m², Large (>1 m²)

Expand to show TLE details & history
Last TLE update: 13 hours ago

TLE from 13 hours ago
0 STARLINK-35363
1 66178U 25243B   26171.29336913  .00022636  00000-0  67879-3 0  9996
2 66178  53.1612 128.6109 0001978  86.2212 273.9017 15.34411226 36367
Epoch: 2026-06-20T07:02Z
TLE epoch observation values (Epoch: 2026-06-20T07:02:27.092Z)
Latitude
-0.00002°
Longitude
114.48793°
Altitude
463.48 km
Speed
7.636 km/s
True Right ascension
08h 34m 26s
True Declination
0° 00' 00"
Sunlit
Object was in daylight at epoch
Visualization orbit readout
Latitude
Unknown
Longitude
Unknown
Altitude
Unknown
Speed
Unknown
Apparent Right ascension
Unknown
Apparent Declination
Unknown
Sunlit
N/A
Visualization observer readout
Local Sidereal Time
07:17:35
Azimuth
Unknown
Elevation
Unknown
Doppler factor
Unknown
Orbital elements
Apogee altitude
464.28 km
Perigee altitude
461.573 km
Semi-major axis
6,841.064 km
Eccentricity
0.0002
Inclination
53.1612°
RAAN
128.6109°
Arg. of periapsis
86.2212°
True anomaly
273.87909°
Mean anomaly
273.9017°
Eccentric anomaly
273.89039°
Mean motion
3.83582 °/min
Orbital period
93.85 mins
BSTAR
0.00067879
Loading maneuver chart data...
Computing Atmospheric mass density...
Loading historical data...
Loading historical data...
Loading historical data...
Loading historical data...
Loading historical data...
Loading historical data...
Loading historical data...

Documentation

Showing up to 5 results
|